Change the Weather History Date:

Tuesday, January 28, 2014

  Actual Average Record
Temperature  
Mean Temperature 40 °F -  
Max Temperature 43 °F - - ()
Min Temperature 36 °F - - ()
Degree Days  
Heating Degree Days 26    
Moisture  
Dew Point 37 °F    
Average Humidity 85    
Maximum Humidity 99    
Minimum Humidity 69    
Precipitation  
Precipitation 0.02 in - - ()
Sea Level Pressure  
Sea Level Pressure 29.02 in    
Wind  
Wind Speed 14 mph ()    
Max Wind Speed 20 mph    
Max Gust Speed 32 mph    
Visibility 9.1 miles    
Events Rain    
T = Trace of Precipitation, MM = Missing Value Source: Averaged Metar Reports

Daily Weather History Graph

Daily Weather History Graph

Search for Another Location

Airport or City:

Trip Planner

Search our weather history database for the weather conditions in past years. The results will help you decide how hot, cold, wet, or windy it might be!

Date:

Astronomy

Jan. 28, 2014 Rise Set
Actual Time 8:28 AM GMT 5:08 PM GMT
Civil Twilight 7:49 AM GMT 5:47 PM GMT
Nautical Twilight 7:06 AM GMT 6:30 PM GMT
Astronomical Twilight 6:24 AM GMT 7:12 PM GMT
Moon 6:04 AM GMT (1/28) 2:37 PM GMT (1/28)
Length of Visible Light 9h 58m
Length of Day
8h 39m
Waning Crescent, 9% of the Moon is Illuminated
Jan 28
Waning Crescent
Jan 30
New
Feb 6
First Quarter
Feb 14
Full
Feb 22
Last Quarter

Hourly Weather History & Observations

Time (GMT) Temp. Windchill Dew Point Humidity Pressure Visibility Wind Dir Wind Speed Gust Speed Precip Events Conditions
12:00 AM 42 °F - 42 °F 99% 28.82 in - WNW 17.9 mph - -  
1:00 AM 43 °F - 42 °F 92% 28.85 in - WNW 17.9 mph - -  
2:00 AM 42 °F - 41 °F 96% 28.86 in - NW 17.9 mph - -  
3:00 AM 42 °F - 41 °F 95% 28.86 in - NW 20.1 mph - -  
4:00 AM 41 °F - 40 °F 93% 28.88 in - NNW 17.9 mph - -  
5:00 AM 41 °F - 40 °F 92% 28.89 in - NNW 15.7 mph - -  
6:00 AM 41 °F - 39 °F 88% 28.91 in 16 mi NNW 17.9 mph - -   Partly Cloudy
7:00 AM 40 °F - 38 °F 91% 28.93 in 16 mi North 13.4 mph - -   Mostly Cloudy
8:00 AM 41 °F - 37 °F 81% 28.95 in 16 mi North 15.7 mph - -   Overcast
8:00 AM 41.0 °F 33.1 °F 37.4 °F 87% 28.91 in 6.2 mi North 15.0 mph - N/A   Overcast
8:30 AM 41.0 °F 32.5 °F 37.4 °F 87% 28.94 in 6.2 mi North 17.3 mph 28.8 mph N/A   Overcast
9:00 AM 40 °F - 37 °F 84% 28.98 in 19 mi North 15.7 mph - -   Overcast
9:00 AM 41.0 °F 32.8 °F 37.4 °F 87% 28.94 in 6.2 mi North 16.1 mph - N/A   Overcast
9:30 AM 41.0 °F 34.3 °F 37.4 °F 87% 28.97 in 6.2 mi North 11.5 mph - N/A   Scattered Clouds
10:00 AM 40 °F - 36 °F 82% 29.00 in 19 mi North 13.4 mph - -   Mostly Cloudy
10:00 AM 41.0 °F 33.9 °F 37.4 °F 87% 28.97 in 6.2 mi North 12.7 mph - N/A   Mostly Cloudy
10:30 AM 41.0 °F 32.8 °F 35.6 °F 81% 28.97 in 6.2 mi North 16.1 mph - N/A   Mostly Cloudy
11:00 AM 41 °F - 36 °F 78% 29.02 in 22 mi North 17.9 mph - - Rain Light Rain Showers
11:00 AM 41.0 °F 32.2 °F 37.4 °F 87% 29.00 in 6.2 mi North 18.4 mph 32.2 mph N/A   Mostly Cloudy
11:30 AM 41.0 °F 33.5 °F 37.4 °F 87% 29.00 in 6.2 mi North 13.8 mph - N/A   Mostly Cloudy
12:00 PM 42 °F - 37 °F 75% 29.03 in 25 mi North 13.4 mph - -   Partly Cloudy
12:00 PM 42.8 °F 35.8 °F 37.4 °F 81% 29.00 in 6.2 mi North 13.8 mph - N/A   Scattered Clouds
12:30 PM 42.8 °F 35.8 °F 37.4 °F 81% 29.00 in 6.2 mi North 13.8 mph - N/A   Scattered Clouds
1:00 PM 43 °F - 36 °F 69% 29.03 in 25 mi North 11.2 mph - -   Partly Cloudy
1:00 PM 42.8 °F 36.6 °F 35.6 °F 76% 29.00 in 6.2 mi North 11.5 mph - N/A   Scattered Clouds
1:30 PM 42.8 °F 36.6 °F 37.4 °F 81% 29.00 in 6.2 mi North 11.5 mph - N/A   Mostly Cloudy
2:00 PM 43 °F - 37 °F 72% 29.05 in 25 mi NNW 13.4 mph - -   Mostly Cloudy
2:00 PM 42.8 °F 35.8 °F 37.4 °F 81% 29.03 in 6.2 mi NNW 13.8 mph - N/A   Mostly Cloudy
2:30 PM 41.0 °F 32.8 °F 37.4 °F 87% 29.03 in 6.2 mi NNW 16.1 mph - N/A Rain Light Rain Showers
3:00 PM 40 °F - 38 °F 92% 29.08 in 11 mi North 8.9 mph - - Rain Light Rain Showers
3:00 PM 41.0 °F 35.2 °F 39.2 °F 93% 29.03 in 6.2 mi North 9.2 mph - N/A   Mostly Cloudy
3:30 PM 41.0 °F 32.8 °F 35.6 °F 81% 29.06 in 6.2 mi NNW 16.1 mph - N/A   Mostly Cloudy
4:00 PM 41 °F - 36 °F 77% 29.09 in 11 mi NNW 15.7 mph - - Rain Light Rain Showers
4:00 PM 41.0 °F 32.8 °F 35.6 °F 81% 29.06 in 6.2 mi NNW 16.1 mph - N/A   Partly Cloudy
4:30 PM 39.2 °F 30.8 °F 35.6 °F 87% 29.09 in 6.2 mi NNW 15.0 mph 26.5 mph N/A   Scattered Clouds
5:00 PM 39 °F - 36 °F 83% 29.13 in 10 mi NNW 13.4 mph - - Rain Light Rain Showers
5:00 PM 39.2 °F 31.2 °F 35.6 °F 87% 29.09 in 6.2 mi NNW 13.8 mph 29.9 mph N/A Rain Light Rain Showers
6:00 PM 38 °F - 36 °F 92% 29.16 in 16 mi North 8.9 mph - - Rain Light Rain Showers
7:00 PM 38 °F - 36 °F 89% 29.18 in 12 mi NNW 8.9 mph - - Rain Light Rain Showers
8:00 PM 36 °F - 35 °F 95% 29.20 in - NNW 8.9 mph - -  
9:00 PM 37 °F - 35 °F 89% 29.23 in - NNW 11.2 mph - -  
10:00 PM 38 °F - 34 °F 81% 29.26 in - NNW 15.7 mph - -  
11:00 PM 38 °F - 34 °F 78% 29.28 in - NNW 11.2 mph - -